Weather History for Hayward, WI

Change the Weather History Date:

Tuesday, March 5, 2013

  Actual Average Record
Temperature  
Mean Temperature 24 °F -  
Max Temperature 28 °F 41 °F 45 °F (1949)
Min Temperature 19 °F 9 °F -25 °F (2003)
Degree Days  
Heating Degree Days 42    
Moisture  
Dew Point 18 °F    
Average Humidity 78    
Maximum Humidity 88    
Minimum Humidity 60    
Precipitation  
Precipitation 0.06 in - - ()
Sea Level Pressure  
Sea Level Pressure 30.12 in    
Wind  
Wind Speed 4 mph (NE)    
Max Wind Speed 10 mph    
Max Gust Speed 22 mph    
Visibility 5 miles    
Events Snow    
Averages and records for this station are not official NWS values.
T = Trace of Precipitation, MM = Missing Value Source: NWS Daily Summary

Daily Weather History Graph

Daily Weather History Graph

Search for Another Location

Airport:

Trip Planner

Search our weather history database for the weather conditions in past years. The results will help you decide how hot, cold, wet, or windy it might be!

Date:

Astronomy

Mar. 05, 2013 Rise Set
Actual Time 6:36 AM CST 5:58 PM CST
Civil Twilight 6:06 AM CST 6:28 PM CST
Nautical Twilight 5:32 AM CST 7:02 PM CST
Astronomical Twilight 4:57 AM CST 7:37 PM CST
Moon 2:03 AM CST (3/5) 11:23 AM CST (3/5)
Length of Visible Light 12h 21m
Length of Day
11h 21m
Last Quarter, 40% of the Moon is Illuminated
Mar 5
Last Quarter
Mar 11
New
Mar 19
First Quarter
Mar 27
Full
Apr 2
Last Quarter

Hourly Weather History & Observations

Time (CST) Temp. Windchill Dew Point Humidity Pressure Visibility Wind Dir Wind Speed Gust Speed Precip Events Conditions
12:06 AM 24.8 °F - 21.2 °F 86% 30.07 in 0.8 mi Calm Calm - 0.01 in Snow Light Snow
12:13 AM 24.8 °F - 21.2 °F 86% 30.06 in 1.2 mi Calm Calm - 0.01 in Snow Light Snow
1:53 AM 26.1 °F 16.8 °F 14.0 °F 60% 30.10 in 10.0 mi East 9.2 mph - N/A   Overcast
2:53 AM 26.1 °F 20.5 °F 15.1 °F 63% 30.07 in 10.0 mi ESE 4.6 mph - N/A   Overcast
3:53 AM 26.1 °F 18.4 °F 16.0 °F 66% 30.06 in 10.0 mi East 6.9 mph - 0.00 in   Overcast
4:53 AM 25.0 °F - 18.0 °F 75% 30.07 in 4.0 mi Calm Calm - 0.00 in Snow Light Snow
5:04 AM 24.8 °F - 19.4 °F 80% 30.02 in 1.8 mi Calm Calm - 0.02 in Snow Light Snow
5:23 AM 24.8 °F - 19.4 °F 80% 30.02 in 2.0 mi Calm Calm - 0.02 in Snow Light Snow
5:44 AM 24.8 °F - 19.4 °F 80% 30.02 in 3.0 mi Calm Calm - 0.03 in Snow Light Snow
5:53 AM 24.1 °F - 19.9 °F 84% 30.08 in 3.0 mi Calm Calm - 0.03 in Snow Light Snow
7:02 AM 21.2 °F 11.7 °F 17.6 °F 86% 30.05 in 0.8 mi ENE 8.1 mph - 0.00 in Snow Light Snow
7:19 AM 21.2 °F 16.4 °F 17.6 °F 86% 30.05 in 1.0 mi NE 3.5 mph - 0.00 in Snow Light Snow
7:32 AM 21.2 °F 13.6 °F 17.6 °F 86% 30.06 in 0.8 mi ENE 5.8 mph - 0.00 in Snow Light Snow
7:53 AM 21.9 °F 14.5 °F 17.1 °F 82% 30.12 in 0.8 mi ENE 5.8 mph - 0.01 in Snow Light Snow
8:21 AM 21.2 °F 13.6 °F 17.6 °F 86% 30.07 in 1.2 mi NE 5.8 mph - 0.00 in Snow Light Snow
8:48 AM 21.2 °F 14.9 °F 17.6 °F 86% 30.07 in 1.0 mi ENE 4.6 mph - 0.00 in Snow Light Snow
8:53 AM 21.9 °F 17.2 °F 17.1 °F 82% 30.13 in 1.0 mi ENE 3.5 mph - 0.00 in Snow Light Snow
9:10 AM 21.2 °F 14.9 °F 17.6 °F 86% 30.07 in 0.8 mi ENE 4.6 mph - 0.01 in Snow Light Snow
9:18 AM 23.0 °F 15.8 °F 17.6 °F 80% 30.07 in 1.0 mi ENE 5.8 mph - 0.01 in Snow Light Snow
9:27 AM 23.0 °F 15.8 °F 17.6 °F 80% 30.08 in 1.5 mi NE 5.8 mph - 0.01 in Snow Light Snow
9:53 AM 23.0 °F 17.0 °F 18.0 °F 81% 30.14 in 1.0 mi NE 4.6 mph - 0.01 in Snow Light Snow
10:05 AM 23.0 °F 15.8 °F 17.6 °F 80% 30.08 in 1.2 mi ENE 5.8 mph - 0.00 in Snow Light Snow
10:22 AM 24.8 °F 17.9 °F 17.6 °F 74% 30.08 in 1.0 mi ENE 5.8 mph - 0.00 in Snow Light Snow
10:29 AM 24.8 °F 16.9 °F 17.6 °F 74% 30.09 in 0.8 mi ENE 6.9 mph - 0.00 in Snow Light Snow
10:39 AM 24.8 °F 19.1 °F 19.4 °F 80% 30.09 in 0.5 mi NE 4.6 mph - 0.01 in Snow Snow
10:53 AM 24.1 °F 18.2 °F 19.9 °F 84% 30.15 in 0.8 mi Variable 4.6 mph - 0.01 in Snow Light Snow
11:17 AM 24.8 °F 17.9 °F 19.4 °F 80% 30.08 in 1.0 mi NNE 5.8 mph - 0.00 in Snow Light Snow
11:25 AM 24.8 °F 17.9 °F 19.4 °F 80% 30.07 in 2.0 mi Variable 5.8 mph - 0.00 in Snow Light Snow
11:30 AM 24.8 °F 16.9 °F 17.6 °F 74% 30.07 in 5.0 mi NNE 6.9 mph - 0.00 in Snow Light Snow
11:53 AM 27.0 °F 21.6 °F 17.1 °F 66% 30.13 in 10.0 mi NE 4.6 mph - 0.00 in   Overcast
12:53 PM 28.0 °F 22.8 °F 16.0 °F 61% 30.12 in 9.0 mi Variable 4.6 mph - N/A   Overcast
1:53 PM 28.0 °F 20.8 °F 18.0 °F 66% 30.13 in 7.0 mi Variable 6.9 mph - 0.00 in Snow Light Snow
2:03 PM 28.4 °F 19.1 °F 17.6 °F 64% 30.08 in 10.0 mi NNE 10.4 mph 16.1 mph 0.00 in   Overcast
2:12 PM 28.4 °F 19.7 °F 17.6 °F 64% 30.08 in 10.0 mi NNE 9.2 mph 17.3 mph 0.00 in   Overcast
2:34 PM 28.4 °F 19.7 °F 17.6 °F 64% 30.08 in 7.0 mi NNE 9.2 mph - 0.00 in Snow Light Snow
2:53 PM 27.0 °F 18.7 °F 19.9 °F 75% 30.15 in 4.0 mi NNE 8.1 mph 17.3 mph 0.00 in Snow Light Snow
3:53 PM 26.1 °F 16.2 °F 19.0 °F 75% 30.17 in 9.0 mi NNE 10.4 mph - 0.00 in   Overcast
4:32 PM 24.8 °F 16.9 °F 19.4 °F 80% 30.13 in 10.0 mi Variable 6.9 mph 19.6 mph 0.00 in   Overcast
4:53 PM 24.1 °F 15.2 °F 19.0 °F 81% 30.20 in 10.0 mi NNE 8.1 mph 21.9 mph 0.00 in   Overcast
5:11 PM 23.0 °F 13.1 °F 19.4 °F 86% 30.15 in 6.0 mi NNE 9.2 mph - N/A   Overcast
5:53 PM 21.9 °F 12.5 °F 18.0 °F 85% 30.23 in 5.0 mi NNE 8.1 mph - N/A   Overcast
6:53 PM 21.9 °F 15.7 °F 18.0 °F 85% 30.25 in 6.0 mi Variable 4.6 mph - N/A   Overcast
7:53 PM 21.0 °F 14.6 °F 18.0 °F 88% 30.25 in 10.0 mi Variable 4.6 mph - N/A   Overcast
8:30 PM 21.2 °F 16.4 °F 17.6 °F 86% 30.20 in 10.0 mi Variable 3.5 mph - N/A   Overcast
8:53 PM 21.9 °F 15.7 °F 17.1 °F 82% 30.27 in 10.0 mi Variable 4.6 mph - N/A   Overcast
9:53 PM 21.0 °F 16.2 °F 16.0 °F 81% 30.29 in 10.0 mi Variable 3.5 mph - N/A   Overcast
10:27 PM 21.2 °F 14.9 °F 15.8 °F 80% 30.23 in 10.0 mi Variable 4.6 mph - N/A   Overcast
10:53 PM 21.0 °F - 15.1 °F 78% 30.30 in 10.0 mi Calm Calm - N/A   Overcast
11:01 PM 19.4 °F 14.3 °F 14.0 °F 80% 30.23 in 10.0 mi Variable 3.5 mph - N/A   Overcast
11:53 PM 19.0 °F 12.3 °F 14.0 °F 81% 30.28 in 10.0 mi NE 4.6 mph - N/A   Overcast